N5TM-4 Weather Reports


Display with metric or nautical units.
time (UTC)temp
F
wind
direction
speed
MPH
gust
MPH
rain 1hr
in
rain 24hr
in
rain mn
in
humidity
%
barometer
mb
20260903143540 84 179 3.0 5.0 0.00 0.00 0.00 82 1014.6
20260903143043 84 180 3.0 5.0 0.00 0.00 0.00 82 1014.6
20260903142544 83 178 0.0 5.0 0.00 0.00 0.00 84 1014.6
20260903142039 83 175 2.0 5.0 0.00 0.00 0.00 84 1014.6
20260903141538 83 149 1.0 5.0 0.00 0.00 0.00 84 1014.5
20260903141041 83 151 1.0 8.0 0.00 0.00 0.00 85 1014.5
20260903140538 82 150 1.0 8.0 0.00 0.00 0.00 85 1014.5
20260903140037 82 145 1.0 4.0 0.00 0.00 0.00 86 1014.5
20260903135537 82 146 1.0 4.0 0.00 0.00 0.00 87 1014.5
20260903135037 81 136 1.0 4.0 0.00 0.00 0.00 87 1014.5
20260903134543 81 135 0.0 4.0 0.00 0.00 0.00 87 1014.4
20260903134036 81 133 0.0 4.0 0.00 0.00 0.00 87 1014.5
20260903133536 81 130 1.0 3.0 0.00 0.00 0.00 87 1014.5
20260903133046 81 130 0.0 3.0 0.00 0.00 0.00 88 1014.5
20260903132536 81 130 1.0 3.0 0.00 0.00 0.00 88 1014.5
20260903132037 81 130 1.0 3.0 0.00 0.00 0.00 88 1014.5
20260903131540 80 129 0.0 2.0 0.00 0.00 0.00 88 1014.4
20260903131035 80 129 0.0 2.0 0.00 0.00 0.00 88 1014.4
20260903130536 80 129 0.0 3.0 0.00 0.00 0.00 88 1014.3
20260903130035 80 129 1.0 3.0 0.00 0.00 0.00 88 1014.2
20260903125535 80 128 1.0 3.0 0.00 0.00 0.00 88 1014.2
20260903125035 80 128 0.0 3.0 0.00 0.00 0.00 88 1014.1
20260903124554 80 173 0.0 2.0 0.00 0.00 0.00 87 1014.0
20260903124034 80 173 0.0 2.0 0.00 0.00 0.00 87 1013.9
20260903123534 80 173 1.0 3.0 0.00 0.00 0.00 86 1013.9
20260903123034 80 173 0.0 3.0 0.00 0.00 0.00 86 1013.8
20260903122535 80 173 0.0 3.0 0.00 0.00 0.00 85 1013.7
20260903122034 80 173 1.0 3.0 0.00 0.00 0.00 85 1013.6
20260903121544 80 173 0.0 3.0 0.00 0.00 0.00 84 1013.6
20260903121035 80 173 0.0 4.0 0.00 0.00 0.00 84 1013.6
20260903120532 80 173 1.0 4.0 0.00 0.00 0.00 84 1013.6
20260903120032 80 175 1.0 3.0 0.00 0.00 0.00 84 1013.5
20260903115532 80 230 0.0 3.0 0.00 0.00 0.00 84 1013.7
20260903115031 80 230 0.0 2.0 0.00 0.00 0.00 84 1013.6
20260903114533 81 230 0.0 3.0 0.00 0.00 0.00 84 1013.7
20260903114030 81 230 0.0 7.0 0.00 0.00 0.00 84 1013.7
20260903113530 81 223 1.0 7.0 0.00 0.00 0.00 84 1013.7
20260903113031 81 198 1.0 5.0 0.00 0.00 0.00 85 1013.6
20260903112529 81 213 2.0 5.0 0.00 0.00 0.00 85 1013.7
20260903112029 81 182 0.0 3.0 0.00 0.00 0.00 85 1013.7
20260903111529 81 189 0.0 4.0 0.00 0.00 0.00 85 1013.7
20260903111028 81 191 0.0 4.0 0.00 0.00 0.00 85 1013.6
20260903110529 81 184 0.0 3.0 0.00 0.00 0.00 85 1013.6
20260903110028 81 180 0.0 4.0 0.00 0.00 0.00 85 1013.6
20260903105528 81 179 2.0 4.0 0.00 0.00 0.00 85 1013.5
20260903105028 81 202 1.0 4.0 0.00 0.00 0.00 85 1013.5
20260903104530 81 202 1.0 4.0 0.00 0.00 0.00 85 1013.5
20260903104032 81 200 0.0 5.0 0.00 0.00 0.00 85 1013.4
20260903103528 81 201 1.0 5.0 0.00 0.00 0.00 85 1013.4
20260903103027 81 188 1.0 4.0 0.00 0.00 0.00 85 1013.3
20260903102526 81 182 0.0 4.0 0.00 0.00 0.00 85 1013.3
20260903102028 81 183 1.0 3.0 0.00 0.00 0.00 85 1013.2
20260903101531 81 186 1.0 3.0 0.00 0.00 0.00 85 1013.2
20260903101025 81 182 1.0 3.0 0.00 0.00 0.00 85 1013.3
20260903100527 81 182 0.0 3.0 0.00 0.00 0.00 85 1013.3
20260903100030 81 182 0.0 3.0 0.00 0.00 0.00 85 1013.3
20260903095530 81 182 1.0 6.0 0.00 0.00 0.00 84 1013.3
20260903095028 81 165 3.0 6.0 0.00 0.00 0.00 85 1013.3
20260903094524 81 200 0.0 5.0 0.00 0.00 0.00 84 1013.3
20260903094026 82 160 2.0 5.0 0.00 0.00 0.00 84 1013.3
20260903093524 82 183 1.0 6.0 0.00 0.00 0.00 84 1013.3
20260903093024 82 184 1.0 6.0 0.00 0.00 0.00 84 1013.3
20260903092524 82 186 1.0 4.0 0.00 0.00 0.00 84 1013.4
20260903092024 82 190 2.0 4.0 0.00 0.00 0.00 84 1013.3
20260903091532 82 180 1.0 5.0 0.00 0.00 0.00 84 1013.3
20260903091023 82 180 2.0 6.0 0.00 0.00 0.00 84 1013.2
20260903090523 82 229 1.0 6.0 0.00 0.00 0.00 83 1013.2
20260903090026 82 198 2.0 7.0 0.00 0.00 0.00 84 1013.2
20260903085523 82 172 2.0 7.0 0.00 0.00 0.00 84 1013.3
20260903085022 82 200 1.0 7.0 0.00 0.00 0.00 84 1013.3
20260903084523 82 166 2.0 7.0 0.00 0.00 0.00 84 1013.3
20260903084022 82 148 1.0 6.0 0.00 0.00 0.00 83 1013.2
20260903083524 82 153 2.0 6.0 0.00 0.00 0.00 83 1013.2
20260903083024 82 170 2.0 6.0 0.00 0.00 0.00 84 1013.2
20260903082522 82 161 0.0 7.0 0.00 0.00 0.00 83 1013.1
20260903082022 82 159 3.0 7.0 0.00 0.00 0.00 84 1013.1
20260903081522 82 185 2.0 6.0 0.00 0.00 0.00 84 1013.0
20260903081021 82 165 2.0 6.0 0.00 0.00 0.00 84 1013.0
20260903080521 82 161 3.0 6.0 0.00 0.00 0.00 84 1013.0
20260903080021 82 172 2.0 5.0 0.00 0.00 0.00 84 1013.0
20260903075521 82 167 3.0 7.0 0.00 0.00 0.00 84 1013.0
20260903075025 82 169 3.0 7.0 0.00 0.00 0.00 84 1013.0
20260903074519 82 194 2.0 5.0 0.00 0.00 0.00 84 1013.1
20260903074020 82 182 3.0 5.0 0.00 0.00 0.00 84 1013.1
20260903073519 82 190 2.0 7.0 0.00 0.00 0.00 84 1013.1
20260903073019 82 157 3.0 7.0 0.00 0.00 0.00 84 1013.2
20260903072519 81 163 3.0 8.0 0.00 0.00 0.00 85 1013.2
20260903072018 81 156 3.0 8.0 0.00 0.00 0.00 85 1013.2
20260903071518 81 154 2.0 8.0 0.00 0.00 0.00 85 1013.2
20260903071017 81 174 2.0 6.0 0.00 0.00 0.00 85 1013.3
20260903070520 81 184 1.0 7.0 0.00 0.00 0.00 85 1013.3
20260903070016 81 159 2.0 7.0 0.00 0.00 0.00 85 1013.4
20260903065515 81 168 2.0 7.0 0.00 0.00 0.00 85 1013.5
20260903065014 81 176 4.0 7.0 0.00 0.00 0.00 85 1013.6
20260903064513 81 148 2.0 5.0 0.00 0.00 0.00 85 1013.7
20260903064013 82 161 2.0 5.0 0.00 0.00 0.00 85 1013.8
20260903063513 82 160 2.0 5.0 0.00 0.00 0.00 85 1013.9
20260903063011 82 159 2.0 5.0 0.00 0.00 0.00 84 1013.9
20260903062511 82 154 1.0 3.0 0.00 0.00 0.00 84 1013.8
20260903062011 82 155 1.0 5.0 0.00 0.00 0.00 84 1013.9
20260903061510 82 155 2.0 5.0 0.00 0.00 0.00 84 1013.9
20260903061008 82 152 1.0 5.0 0.00 0.00 0.00 83 1013.8
20260903060508 82 150 1.0 4.0 0.00 0.00 0.00 83 1014.0
20260903060007 83 188 2.0 5.0 0.00 0.00 0.00 82 1014.0
20260903055506 83 190 3.0 5.0 0.00 0.00 0.00 82 1014.1
20260903055006 83 138 2.0 5.0 0.00 0.00 0.00 82 1014.1
20260903054505 83 170 3.0 5.0 0.00 0.00 0.00 81 1014.2
20260903054008 83 177 2.0 6.0 0.00 0.00 0.00 81 1014.2
20260903053507 83 172 2.0 6.0 0.00 0.00 0.00 81 1014.2
20260903053003 83 181 0.0 3.0 0.00 0.00 0.00 81 1014.3
20260903052502 83 180 0.0 3.0 0.00 0.00 0.00 81 1014.4
20260903052002 83 181 0.0 3.0 0.00 0.00 0.00 81 1014.5
20260903051602 83 181 1.0 3.0 0.00 0.00 0.00 81 1014.6
20260903051059 83 181 0.0 1.0 0.00 0.00 0.00 81 1014.7
20260903050601 83 181 0.0 0.0 0.00 0.00 0.00 81 1014.8
20260903050058 83 181 0.0 0.0 0.00 0.00 0.00 81 1014.8
20260903050001 83 181 0.0 0.0 0.00 0.00 0.00 81 1014.8
20260903045558 83 181 0.0 1.0 0.00 0.00 0.00 81 1014.8
20260903045058 83 181 0.0 1.0 0.00 0.00 0.00 81 1014.8
20260903044557 83 172 0.0 3.0 0.00 0.00 0.00 81 1014.7
20260903044057 83 172 1.0 5.0 0.00 0.00 0.00 81 1014.7
20260903043556 83 172 1.0 5.0 0.00 0.00 0.00 82 1014.7
20260903043108 83 137 1.0 5.0 0.00 0.00 0.00 82 1014.6
20260903042556 83 175 2.0 5.0 0.00 0.00 0.00 82 1014.6
20260903042056 83 171 1.0 4.0 0.00 0.00 0.00 82 1014.6
20260903041557 83 171 1.0 7.0 0.00 0.00 0.00 82 1014.6
20260903041056 83 170 2.0 7.0 0.00 0.00 0.00 81 1014.5
20260903040559 83 163 2.0 6.0 0.00 0.00 0.00 81 1014.4
20260903040056 83 142 2.0 7.0 0.00 0.00 0.00 81 1014.4
20260903035555 83 146 2.0 8.0 0.00 0.00 0.00 81 1014.2
20260903035055 83 157 3.0 8.0 0.00 0.00 0.00 81 1014.3
20260903034557 83 154 4.0 7.0 0.00 0.00 0.00 80 1014.3
20260903034055 83 159 3.0 7.0 0.00 0.00 0.00 80 1014.3
20260903033554 84 174 3.0 7.0 0.00 0.00 0.00 80 1014.2
20260903033056 84 173 3.0 8.0 0.00 0.00 0.00 79 1014.2
20260903032555 84 169 4.0 8.0 0.00 0.00 0.00 79 1014.1
20260903032054 84 159 3.0 7.0 0.00 0.00 0.00 79 1014.1
20260903031555 84 167 3.0 8.0 0.00 0.00 0.00 78 1014.0
20260903031056 84 171 4.0 8.0 0.00 0.00 0.00 78 1013.9
20260903030554 84 165 3.0 7.0 0.00 0.00 0.00 78 1013.9
20260903030106 84 171 3.0 10.0 0.00 0.00 0.00 78 1013.7
20260903025554 84 181 3.0 10.0 0.00 0.00 0.00 77 1013.6
20260903025054 84 169 4.0 8.0 0.00 0.00 0.00 77 1013.5
20260903024556 84 175 3.0 8.0 0.00 0.00 0.00 76 1013.5
20260903024053 84 209 4.0 8.0 0.00 0.00 0.00 76 1013.4
20260903023553 84 168 5.0 8.0 0.00 0.00 0.00 75 1013.2
20260903023054 84 161 5.0 8.0 0.00 0.00 0.00 74 1013.3
20260903022553 85 175 5.0 7.0 0.00 0.00 0.00 73 1013.4
20260903022052 85 172 3.0 7.0 0.00 0.00 0.00 72 1013.3
20260903021553 85 165 4.0 7.0 0.00 0.00 0.00 71 1013.3
20260903021052 85 159 2.0 8.0 0.00 0.00 0.00 71 1013.2
20260903020552 85 209 3.0 8.0 0.00 0.00 0.00 71 1013.0
20260903020055 85 180 3.0 15.0 0.00 0.00 0.00 70 1012.9
20260903015552 85 180 5.0 15.0 0.00 0.00 0.00 70 1012.7
20260903015052 85 177 6.0 10.0 0.00 0.00 0.00 69 1012.6
20260903014557 86 142 4.0 10.0 0.00 0.00 0.00 68 1012.6
20260903014051 86 172 5.0 11.0 0.00 0.00 0.00 67 1012.6
20260903013554 86 169 6.0 12.0 0.00 0.00 0.00 67 1012.7
20260903013053 86 133 5.0 13.0 0.00 0.00 0.00 67 1012.6
20260903012552 86 168 6.0 13.0 0.00 0.00 0.00 67 1012.4
20260903012051 86 174 5.0 13.0 0.00 0.00 0.00 66 1012.4
20260903011556 87 142 7.0 16.0 0.00 0.00 0.00 66 1012.3
20260903011051 87 180 5.0 16.0 0.00 0.00 0.00 65 1012.3
20260903010550 87 164 5.0 12.0 0.00 0.00 0.00 65 1012.3
20260903010050 87 173 4.0 15.0 0.00 0.00 0.00 64 1012.3
20260903005550 88 144 7.0 20.0 0.00 0.00 0.00 64 1012.1
20260903005051 88 223 7.0 20.0 0.00 0.00 0.00 63 1011.9
20260903004559 88 167 4.0 14.0 0.00 0.00 0.00 63 1011.9
20260903004049 88 167 8.0 15.0 0.00 0.00 0.00 62 1011.9
20260903003549 89 171 5.0 15.0 0.00 0.00 0.00 61 1011.9
20260903003053 89 173 5.0 15.0 0.00 0.00 0.00 59 1011.8
20260903002550 89 183 6.0 14.0 0.00 0.00 0.00 58 1011.7
20260903002048 89 144 7.0 12.0 0.00 0.00 0.00 57 1011.6
20260903001549 89 106 5.0 12.0 0.00 0.00 0.00 57 1011.6
20260903001049 90 153 3.0 14.0 0.00 0.00 0.00 56 1011.4
20260903000548 90 186 7.0 14.0 0.00 0.00 0.00 56 1011.3
20260903000048 90 168 7.0 14.0 0.00 0.00 0.00 56 1011.3
20260902235548 90 186 5.0 14.0 0.00 0.00 0.00 56 1011.4
20260902235047 90 148 8.0 12.0 0.00 0.00 0.00 56 1011.3
20260902234548 91 167 7.0 15.0 0.00 0.00 0.00 56 1011.3
20260902234047 91 175 7.0 15.0 0.00 0.00 0.00 56 1011.3
20260902233547 91 163 6.0 13.0 0.00 0.00 0.00 56 1011.3
20260902233058 91 140 6.0 18.0 0.00 0.00 0.00 57 1011.4
20260902232547 92 213 8.0 18.0 0.00 0.00 0.00 58 1011.3
20260902232048 92 163 6.0 13.0 0.00 0.00 0.00 58 1011.2
20260902231547 92 174 6.0 15.0 0.00 0.00 0.00 57 1011.2
20260902231046 92 155 5.0 15.0 0.00 0.00 0.00 56 1011.1
20260902230544 93 150 6.0 14.0 0.00 0.00 0.00 56 1011.1
20260902230045 93 132 5.0 12.0 0.00 0.00 0.00 56 1011.1
20260902225544 93 128 5.0 12.0 0.00 0.00 0.00 56 1011.1
20260902225045 93 167 4.0 14.0 0.00 0.00 0.00 55 1011.1
20260902224552 93 148 6.0 14.0 0.00 0.00 0.00 55 1011.2
20260902224044 94 173 5.0 11.0 0.00 0.00 0.00 54 1011.2
20260902223544 94 148 4.0 14.0 0.00 0.00 0.00 55 1011.1
20260902223058 94 175 5.0 14.0 0.00 0.00 0.00 55 1011.2
20260902222543 94 155 4.0 14.0 0.00 0.00 0.00 55 1011.2
20260902222043 94 167 6.0 14.0 0.00 0.00 0.00 54 1011.2
20260902221543 94 167 6.0 11.0 0.00 0.00 0.00 53 1011.2
20260902221046 95 173 6.0 11.0 0.00 0.00 0.00 52 1011.2
20260902220542 94 183 4.0 13.0 0.00 0.00 0.00 52 1011.2
20260902220043 95 150 7.0 13.0 0.00 0.00 0.00 51 1011.2
20260902215541 95 157 2.0 11.0 0.00 0.00 0.00 51 1011.1
20260902215041 96 147 4.0 10.0 0.00 0.00 0.00 49 1011.1
20260902214541 96 184 4.0 10.0 0.00 0.00 0.00 49 1011.2
20260902214041 95 171 5.0 11.0 0.00 0.00 0.00 50 1011.3
20260902213542 96 176 5.0 11.0 0.00 0.00 0.00 49 1011.3
20260902213040 96 158 3.0 9.0 0.00 0.00 0.00 50 1011.3
20260902212539 96 124 4.0 11.0 0.00 0.00 0.00 49 1011.4
20260902212039 97 161 4.0 11.0 0.00 0.00 0.00 48 1011.4
20260902211538 98 161 2.0 12.0 0.00 0.00 0.00 47 1011.4
20260902211039 98 211 5.0 12.0 0.00 0.00 0.00 46 1011.5
20260902210539 98 211 6.0 12.0 0.00 0.00 0.00 46 1011.6
20260902210038 98 163 2.0 8.0 0.00 0.00 0.00 45 1011.5
20260902205537 98 181 3.0 10.0 0.00 0.00 0.00 45 1011.7
20260902205037 98 144 4.0 10.0 0.00 0.00 0.00 45 1011.7
20260902204544 98 180 4.0 10.0 0.00 0.00 0.00 45 1011.7
20260902204035 99 130 3.0 10.0 0.00 0.00 0.00 44 1011.8
20260902203535 99 163 3.0 8.0 0.00 0.00 0.00 45 1011.9
20260902203035 98 167 3.0 7.0 0.00 0.00 0.00 45 1011.9
20260902202535 98 164 2.0 12.0 0.00 0.00 0.00 47 1012.0
20260902202035 97 157 5.0 12.0 0.00 0.00 0.00 46 1011.9
20260902201536 98 165 5.0 13.0 0.00 0.00 0.00 46 1012.0
20260902201035 99 194 4.0 8.0 0.00 0.00 0.00 45 1012.1
20260902200532 98 265 1.0 8.0 0.00 0.00 0.00 47 1012.1
20260902200031 98 240 1.0 11.0 0.00 0.00 0.00 47 1012.3
20260902195531 98 208 4.0 11.0 0.00 0.00 0.00 47 1012.3
20260902195031 99 192 4.0 9.0 0.00 0.00 0.00 45 1012.4
20260902194529 100 169 1.0 4.0 0.00 0.00 0.00 44 1012.6
20260902194028 99 244 1.0 10.0 0.00 0.00 0.00 45 1012.6
20260902193528 99 314 2.0 12.0 0.00 0.00 0.00 45 1012.7
20260902193029 99 201 4.0 12.0 0.00 0.00 0.00 46 1012.7
20260902192526 99 144 4.0 11.0 0.00 0.00 0.00 44 1012.8
20260902192026 100 208 4.0 10.0 0.00 0.00 0.00 44 1012.9
20260902191526 101 113 3.0 8.0 0.00 0.00 0.00 43 1012.9
20260902191025 103 161 3.0 10.0 0.00 0.00 0.00 41 1013.0
20260902190524 103 138 1.0 6.0 0.00 0.00 0.00 42 1013.0
20260902190024 103 284 2.0 6.0 0.00 0.00 0.00 41 1013.1
20260902185525 103 309 1.0 7.0 0.00 0.00 0.00 42 1013.2
20260902185022 102 192 2.0 7.0 0.00 0.00 0.00 43 1013.3
20260902184529 102 197 2.0 6.0 0.00 0.00 0.00 43 1013.4
20260902184021 102 290 2.0 8.0 0.00 0.00 0.00 44 1013.5
20260902183521 102 163 3.0 8.0 0.00 0.00 0.00 43 1013.6
20260902183037 102 325 3.0 8.0 0.00 0.00 0.00 43 1013.7
20260902182520 102 178 2.0 9.0 0.00 0.00 0.00 44 1013.7
20260902182019 102 157 0.0 6.0 0.00 0.00 0.00 45 1013.8
20260902181519 101 289 2.0 7.0 0.00 0.00 0.00 46 1013.9
20260902181019 101 192 3.0 9.0 0.00 0.00 0.00 45 1014.0
20260902180518 101 271 2.0 9.0 0.00 0.00 0.00 45 1014.1
20260902180018 100 245 2.0 8.0 0.00 0.00 0.00 46 1014.2
20260902175519 100 168 4.0 8.0 0.00 0.00 0.00 46 1014.3
20260902175018 102 190 3.0 7.0 0.00 0.00 0.00 44 1014.4
20260902174523 102 298 2.0 7.0 0.00 0.00 0.00 46 1014.5
20260902174015 101 301 2.0 7.0 0.00 0.00 0.00 47 1014.7
20260902173513 100 298 1.0 7.0 0.00 0.00 0.00 49 1014.8
20260902173022 100 194 3.0 10.0 0.00 0.00 0.00 49 1014.8
20260902172510 100 168 2.0 10.0 0.00 0.00 0.00 50 1014.9
20260902172009 99 271 3.0 8.0 0.00 0.00 0.00 51 1014.9
20260902171508 99 287 2.0 8.0 0.00 0.00 0.00 52 1015.0
20260902171006 98 298 2.0 14.0 0.00 0.00 0.00 53 1015.1
20260902170507 98 142 3.0 14.0 0.00 0.00 0.00 53 1015.2
20260902170005 98 180 1.0 5.0 0.00 0.00 0.00 55 1015.2
20260902165502 97 261 1.0 7.0 0.00 0.00 0.00 57 1015.3
20260902165003 95 60 1.0 7.0 0.00 0.00 0.00 58 1015.2
20260902164606 95 286 3.0 7.0 0.00 0.00 0.00 59 1015.4
20260902164058 94 184 1.0 11.0 0.00 0.00 0.00 60 1015.4
20260902163557 93 187 2.0 11.0 0.00 0.00 0.00 61 1015.5
20260902163055 92 267 2.0 9.0 0.00 0.00 0.00 63 1015.5
20260902162554 91 240 2.0 7.0 0.00 0.00 0.00 64 1015.5
20260902162054 91 233 1.0 5.0 0.00 0.00 0.00 65 1015.6
20260902161552 91 126 2.0 8.0 0.00 0.00 0.00 66 1015.7
20260902161050 90 107 1.0 8.0 0.00 0.00 0.00 67 1015.6
20260902160550 90 309 1.0 7.0 0.00 0.00 0.00 67 1015.6
20260902160048 90 269 2.0 10.0 0.00 0.00 0.00 68 1015.6
20260902155547 90 196 0.0 10.0 0.00 0.00 0.00 69 1015.6
20260902155047 90 186 1.0 7.0 0.00 0.00 0.00 69 1015.6
20260902154546 89 155 2.0 7.0 0.00 0.00 0.00 70 1015.5
20260902154044 88 128 1.0 7.0 0.00 0.00 0.00 73 1015.5
20260902153545 87 289 2.0 7.0 0.00 0.00 0.00 76 1015.6
20260902153052 86 302 1.0 5.0 0.00 0.00 0.00 77 1015.5
20260902152543 85 305 1.0 5.0 0.00 0.00 0.00 78 1015.5
20260902152039 85 330 1.0 8.0 0.00 0.00 0.00 79 1015.5
20260902151538 85 169 1.0 8.0 0.00 0.00 0.00 80 1015.5
20260902151037 84 236 2.0 5.0 0.00 0.00 0.00 80 1015.4
20260902150535 84 166 1.0 5.0 0.00 0.00 0.00 81 1015.5
20260902150035 84 309 1.0 8.0 0.00 0.00 0.00 82 1015.4
20260902145534 83 298 1.0 8.0 0.00 0.00 0.00 82 1015.4
20260902145036 83 320 1.0 5.0 0.00 0.00 0.00 83 1015.4
20260902144532 83 261 1.0 5.0 0.00 0.00 0.00 83 1015.4
20260902144031 83 297 1.0 4.0 0.00 0.00 0.00 84 1015.4